Date,TemperatureHighF,TemperatureAvgF,TemperatureLowF,DewpointHighF,DewpointAvgF,DewpointLowF,HumidityHigh,HumidityAvg,HumidityLow,PressureMaxIn,PressureMinIn,WindSpeedMaxMPH,WindSpeedAvgMPH,GustSpeedMaxMPH,PrecipitationSumIn
2013-3-1,45,36,27,24,20,15,66,51,38,30.37,30.28,14,2,15,0.00
2013-3-2,60,46,30,29,26,21,71,46,28,30.34,29.95,18,3,18,0.00
2013-3-3,63,52,42,28,26,21,53,36,24,29.95,29.50,33,7,36,0.00
2013-3-4,52,32,20,27,22,11,87,67,38,30.30,29.50,31,4,31,0.06
2013-3-5,39,26,14,23,16,7,76,65,48,30.45,30.28,10,1,10,0.02
2013-3-6,58,37,20,31,23,15,83,60,22,30.29,29.86,17,1,17,0.01
2013-3-7,63,45,28,32,27,22,76,53,25,29.97,29.81,17,2,18,0.00
2013-3-8,46,38,31,32,29,25,83,71,58,29.91,29.67,10,1,10,0.00
2013-3-9,35,31,24,30,27,18,91,84,71,30.17,29.64,27,5,27,0.14
2013-3-10,42,30,16,24,17,10,83,60,37,30.31,30.12,18,2,21,0.25
2013-3-11,52,42,31,29,23,18,89,52,33,30.14,29.87,33,8,37,0.01
2013-3-12,37,30,24,28,24,20,92,81,65,30.38,30.13,9,1,9,0.15
2013-3-13,63,44,26,36,27,21,86,57,25,30.38,30.20,22,3,23,0.00
2013-3-14,70,55,41,34,29,24,56,38,22,30.22,29.97,13,2,15,0.00
2013-3-15,74,66,52,30,28,25,39,24,18,29.97,29.60,32,8,32,0.00
2013-3-16,60,47,39,34,32,29,73,55,32,29.78,29.62,21,3,21,0.00
2013-3-17,58,45,33,32,25,17,72,47,24,29.78,29.44,40,7,40,0.00
2013-3-18,48,41,33,19,14,7,47,33,26,29.92,29.78,34,10,34,0.00
2013-3-19,53,42,29,17,11,2,58,29,15,30.33,29.90,35,6,35,0.00
2013-3-20,51,36,22,26,20,13,74,53,34,30.33,29.76,10,1,11,0.00
2013-3-21,58,45,37,36,25,13,68,46,27,29.76,29.43,31,5,33,0.01
2013-3-22,47,34,27,28,20,11,90,59,28,29.97,29.64,31,5,31,0.00
2013-3-23,26,19,13,23,15,8,89,86,74,30.40,29.96,24,5,24,0.00
2013-3-24,26,18,5,18,12,1,84,77,62,30.47,30.35,10,1,10,0.23
2013-3-25,34,23,13,16,12,7,85,64,33,30.49,30.36,11,1,11,0.02
2013-3-26,44,32,16,29,20,9,80,61,45,30.36,30.02,13,2,13,0.00
2013-3-27,53,41,28,37,30,22,83,66,46,30.12,30.02,13,2,13,0.00
2013-3-28,63,50,32,36,33,28,86,55,31,30.09,29.97,14,2,15,0.00
2013-3-29,65,52,38,35,32,29,74,48,27,30.04,29.91,34,4,34,0.00
2013-3-30,65,50,38,39,32,26,80,54,23,30.12,29.86,28,4,28,0.00
2013-3-31,68,52,35,35,29,23,83,48,20,30.11,29.82,17,3,17,0.00